Regional Weather Roundup
Issued by NWS

Home | Current Version | Previous Version | Text Only | Print | Product List | Glossary Off
Versions: 1 2 3 4 5 6 7 8 9 10 11 12 13 14 15 16 17 18 19 20 21 22 23 24 25 26 27 28 29 30 31 32 33 34 35 36 37 38 39 40 41 42 43 44 45 46 47 48 49 50

954
ASUS44 KLIX 190111
RWRLA
LOUISIANA WEATHER ROUNDUP
NATIONAL WEATHER SERVICE NEW ORLEANS LA
800 PM CDT SAT APR 18 2015

NOTE: "FAIR" INDICATES FEW OR NO CLOUDS BELOW 12,000 FEET WITH NO
      SIGNIFICANT WEATHER AND/OR OBSTRUCTIONS TO VISIBILITY.
      SKY/WX - SKY CONDITION AND SIGNIFICANT WEATHER.
      TMP - AIR TEMPERATURE.    DP   - DEWPOINT TEMPERATURE.
      RH  - RELATIVE HUMIDITY.  PRES - PRESSURE.
      HX  - HEAT INDEX.         WCI  - WIND CHILL INDEX.

*  THESE STATIONS ARE NOT NWS OR FAA STATIONS AND ARE NOT UNDER
   NWS QUALITY CONTROL.

LAZ040-048-061>063-065-066-069-190200-
SOUTHEAST LOUISIANA

CITY           SKY/WX    TMP DP  RH WIND       PRES   REMARKS
N.O. AUDUBON   NOT AVBL
N.O. INTL ARPT LGT RAIN  72  69  90 S8        29.87S
N.O. LAKEFRONT LGT RAIN  74  69  85 S12       29.88R
SLIDELL        CLOUDY    72  71  97 S9        29.86R
BATON ROUGE    CLOUDY    73  69  87 S13       29.82R
BOOTHVILLE     LGT RAIN  71  69  93 SE9       29.88R
BELLE CHASSE   LGT RAIN  71  68  90 S8        29.88R FOG
BOGALUSA*      RAIN      74  69  85 S7        29.86R
GALLIANO*      DRIZZLE   70  69  96 S6        29.88S
NEW ROADS*     CLOUDY    73  69  87 S6        29.81F
GONZALES*      DRIZZLE   72  72 100 S6        29.82F
HAMMOND*       LGT RAIN  73  70  88 S12       29.86R
HOUMA*         RAIN      72  71  97 SE8       29.87S
PORT FOURCHON* CLOUDY    72  70  94 SE12G17   29.91R

$$

LAZ041-044-053-054-190200-
SOUTHWEST LOUISIANA

CITY           SKY/WX    TMP DP  RH WIND       PRES   REMARKS
LAKE CHARLES   CLOUDY    73  71  93 SW7       29.79R
LAFAYETTE      NOT AVBL
PATTERSON      CLOUDY    72  70  94 SE7       29.84R
SALT POINT       N/A     72  70  93 SE8       29.80S
NEW IBERIA     NOT AVBL
CHENAULT AIRPK NOT AVBL

$$

LAZ027-028-190200-
CENTRAL LOUISIANA

CITY           SKY/WX    TMP DP  RH WIND       PRES   REMARKS
FORT POLK      MOCLDY    70  68  94 E1        29.77F
ALEXANDRIA INT CLOUDY    69  69 100 E7        29.77F
ALEXANDRIA     CLOUDY    70  69  97 E6        29.79F

$$

LAZ001-002-190200-
NORTHWEST LOUISIANA

CITY           SKY/WX    TMP DP  RH WIND       PRES   REMARKS
SHREVEPORT     MOCLDY    69  65  86 E3        29.76F
BARKSDALE AFB  MOCLDY    68  65  89 E2        29.76F
DTN SHREVEPORT MOCLDY    69  63  81 NE3       29.76F

$$

LAZ014-016-190200-
NORTHEAST LOUISIANA

CITY           SKY/WX    TMP DP  RH WIND       PRES   REMARKS
MONROE         CLOUDY    69  66  90 CALM      29.79F
TALLULAH       HVY RAIN  69  67  93 W7        29.82S FOG

$$




USA.gov is the U.S. government's official web portal to all federal, state and local government web resources and services.